User: anonymous   Login
Location: Montr�al
(45.5000°N, 73.5830°W)
Time: 20:04:52
(UTC-05:00)
Language:

Cosmos 1470 Rocket - Orbit

View from above orbital plane
View from above orbital plane
View from above satellite
View from above satellite

Ground track
Ground track

The orbit data is extracted from the following two-line orbital elements,

1 14148U 83061B   14350.36059751  .00000593  00000-0  69987-4 0  8343
2 14148 082.5191 045.3166 0023341 104.5599 017.1506 14.82843262699393
Epoch (UTC): 16 December 2014 08:39:15
Eccentricity: 0.0023341
inclination: 82.5191°
perigee height: 604 km
apogee height: 637 km
right ascension of ascending node: 45.3166°
argument of perigee: 104.5599°
revolutions per day: 14.82843262
mean anomaly at epoch: 17.1506°
orbit number at epoch: 69939

The dashed part of the orbit path shows where the satellite is in the earth's shadow,  

DLR